Regional Weather Roundup
Issued by NWS

Home | Current Version | Previous Version | Graphics & Text | Print | Product List | Glossary On
Versions: 1 2 3 4 5 6 7 8 9 10 11 12 13 14 15 16 17 18 19 20 21 22 23 24 25 26 27 28 29 30 31 32 33 34 35 36 37 38 39 40 41 42 43 44 45 46 47 48 49 50
000
ASUS45 KBOI 280310
RWRID
WEATHER ROUNDUP FOR IDAHO
NATIONAL WEATHER SERVICE BOISE ID
900 PM MDT FRI MAR 27 2015

NOTE: "FAIR" INDICATES FEW OR NO CLOUDS BELOW 12000 FEET
WITH NO SIGNIFICANT WEATHER AND/OR OBSTRUCTIONS TO VISIBILITY

IDZ012-014-280400-
SOUTHWEST IDAHO


CITY           SKY/WX    TMP DP  RH WIND       PRES   REMARKS
BOISE          CLEAR     65  42  43 SE9       29.96F
CALDWELL       CLEAR     64  45  48 CALM      29.95F
MOUNTAIN HOME  CLEAR     65  41  41 SE6       29.99R
$$

IDZ016-017-280400-
SOUTHCENTRAL IDAHO


CITY           SKY/WX    TMP DP  RH WIND       PRES   REMARKS
BURLEY         CLEAR     55  39  54 CALM      30.07R
JEROME         CLEAR     58  35  42 E9        30.06F
TWIN FALLS     CLEAR     52  38  58 E6        30.07S
$$

IDZ019>023-280400-
SOUTHEAST IDAHO


CITY           SKY/WX    TMP DP  RH WIND       PRES   REMARKS
IDAHO FALLS    CLEAR     60  33  36 S6        30.11R
POCATELLO      CLEAR     59  31  34 S13       30.11R
REXBURG        CLEAR     58  32  37 S8        30.10S
$$

IDZ006-010-011-018-031-032-280400-
CENTRAL IDAHO MOUNTAINS


CITY           SKY/WX    TMP DP  RH WIND       PRES   REMARKS
MCCALL         CLEAR     51  40  65 CALM      30.05F
HAILEY         CLEAR     59  36  41 CALM      30.14R
STANLEY          N/A     43  31  62 SE5       30.17S
SALMON         CLEAR     55  36  47 SE3       30.00R
CHALLIS        CLEAR     60  30  32 W12       30.06S
$$

IDZ002-004-006-007-026-280400-
NORTHERN IDAHO


CITY           SKY/WX    TMP DP  RH WIND       PRES   REMARKS
LEWISTON       CLEAR     65  52  62 SE6       29.86F
LOWELL           N/A     55  51  86 N5        29.91R
COEUR D`ALENE  CLEAR     61  46  59 SE6       29.89S
MULLAN PASS    PTCLDY    51  36  56 W8        30.03F
$$



USA.gov is the U.S. government's official web portal to all federal, state and local government web resources and services.